Regional Weather Roundup
Issued by NWS

Home | Current Version | Previous Version | Text Only | Print | Product List | Glossary On
Versions: 1 2 3 4 5 6 7 8 9 10 11 12 13 14 15 16 17 18 19 20 21 22 23 24 25 26 27 28 29 30 31 32 33 34 35 36 37 38 39 40 41 42 43 44 45 46 47 48 49
000
ASUS46 KPQR 090210
RWROR

OREGON REGIONAL WEATHER ROUNDUP
NATIONAL WEATHER SERVICE PORTLAND OR
600 PM PST MON FEB 08 2016

NOTE: "FAIR" INDICATES FEW OR NO CLOUDS BELOW 12,000 FEET WITH
NO SIGNIFICANT WEATHER AND/OR OBSTRUCTIONS TO VISIBILITY.

ORZ001>013-090300-
NORTHWEST OREGON


CITY           SKY/WX    TMP DP  RH WIND       PRES   REMARKS
ASTORIA        CLEAR     59  46  62 E13       30.18F
NEWPORT        CLEAR     64  43  45 E22G29    30.16F
PORTLAND       PTCLDY    54  39  57 E8        30.27S
VANCOUVER WA   CLEAR     53  40  61 E3        30.27S
SCAPPOOSE      CLEAR     51  47  86 W3        30.26F
HILLSBORO      CLEAR     57  39  51 NE8       30.26S
AURORA         PTCLDY    55  39  54 N5        30.25S
MCMINNVILLE    CLEAR     58  43  57 N8        30.25F
SALEM          CLEAR     58  39  49 N7        30.23F
CORVALLIS      CLEAR     57  45  62 CALM      30.24F
EUGENE         PTCLDY    53  47  79 CALM      30.23F
$$

ORZ021-028-090300-
SOUTHWEST OREGON


CITY           SKY/WX    TMP DP  RH WIND       PRES   REMARKS
NORTH BEND     CLEAR     61  46  59 CALM      30.18R
BROOKINGS      CLEAR     64  48  56 NE5       30.17F
ROSEBURG       CLEAR     54  49  83 CALM      30.21S
SEXTON SUMMIT  LGT RAIN  57  32  38 E13       30.29S
MEDFORD        CLEAR     73  34  23 E9G20     30.21R
$$

ORZ014>016-041-090300-
COLUMBIA GORGE


CITY           SKY/WX    TMP DP  RH WIND       PRES   REMARKS
TROUTDALE      CLEAR     54  38  54 E28G37    30.28R
THE DALLES     CLEAR     47  35  63 E8        30.52S
$$

ORZ029>031-041-044-049-050-061>064-502-503-505>511-090300-
EASTERN OREGON


CITY           SKY/WX    TMP DP  RH WIND       PRES   REMARKS
REDMOND        CLEAR     50  38  63 NW9       30.43S
BEND           CLEAR     54  39  58 CALM      30.43S
PRINEVILLE     CLEAR     52  36  54 SE8       30.44F
KLAMATH FALLS  CLEAR     56  32  40 E15       30.39F
LAKEVIEW       CLEAR     39  28  65 W6        30.49S WCI  35
HERMISTON      CLEAR     43  34  70 NE8       30.52F
PENDLETON      CLEAR     39  35  86 NE8       30.50F WCI  33
JOHN DAY       CLEAR     55  32  42 E7        30.50S
MEACHAM        CLEAR     41  31  67 CALM      30.50F
LA GRANDE      CLEAR     45  30  57 S15       30.54F
BAKER CITY     CLEAR     33  30  88 CALM      30.59F
BURNS          CLEAR     30  26  85 N6        30.55F WCI  24
ROME             N/A     42  35  76 NE7       30.54F
ONTARIO        CLEAR     37  32  82 NW5       30.68S WCI  33
$$



USA.gov is the U.S. government's official web portal to all federal, state and local government web resources and services.